Time,TemperatureF,DewpointF,PressureIn,WindDirection,WindDirectionDegrees,WindSpeedMPH,WindSpeedGustMPH,Humidity,HourlyPrecipIn,Conditions,Clouds,dailyrainin,SoftwareType,DateUTC
2013-06-17 00:01:00,67.1,58.9,29.74,West,280,0.0,3.0,75,0.00,,,0.00,WeatherCatV1.10B1784,2013-06-17 04:01:00,
2013-06-17 00:06:00,67.0,58.8,29.74,WNW,303,3.0,7.0,75,0.00,,,0.00,WeatherCatV1.10B1784,2013-06-17 04:06:00,
2013-06-17 00:11:00,66.9,58.7,29.74,WNW,283,0.0,2.0,75,0.00,,,0.00,WeatherCatV1.10B1784,2013-06-17 04:11:00,
2013-06-17 00:16:00,66.8,58.6,29.74,South,179,0.0,6.0,75,0.00,,,0.00,WeatherCatV1.10B1784,2013-06-17 04:16:00,
2013-06-17 00:21:00,66.7,58.5,29.74,SW,226,0.0,7.0,75,0.00,,,0.00,WeatherCatV1.10B1784,2013-06-17 04:21:00,
2013-06-17 00:26:00,66.6,58.4,29.74,WSW,238,0.0,7.0,75,0.00,,,0.00,WeatherCatV1.10B1784,2013-06-17 04:26:00,
2013-06-17 00:31:00,66.5,58.3,29.74,WSW,247,0.0,10.0,75,0.00,,,0.00,WeatherCatV1.10B1784,2013-06-17 04:31:00,
2013-06-17 00:36:00,66.5,58.7,29.74,WNW,292,0.0,3.0,76,0.00,,,0.00,WeatherCatV1.10B1784,2013-06-17 04:36:00,
2013-06-17 00:41:00,66.2,58.4,29.74,West,272,0.0,5.0,76,0.00,,,0.00,WeatherCatV1.10B1784,2013-06-17 04:41:00,
2013-06-17 00:46:00,65.9,58.5,29.74,NW,322,0.0,5.0,77,0.00,,,0.00,WeatherCatV1.10B1784,2013-06-17 04:46:00,
2013-06-17 00:51:00,65.7,58.3,29.74,WSW,257,3.0,10.0,77,0.00,,,0.00,WeatherCatV1.10B1784,2013-06-17 04:51:00,
2013-06-17 00:56:00,65.7,58.3,29.74,SW,233,6.0,9.0,77,0.00,,,0.00,WeatherCatV1.10B1784,2013-06-17 04:56:00,
2013-06-17 01:01:00,65.6,58.2,29.74,NNW,336,4.0,15.0,77,0.00,,,0.00,WeatherCatV1.10B1784,2013-06-17 05:01:00,
2013-06-17 01:06:00,65.6,58.2,29.74,WNW,290,0.0,5.0,77,0.00,,,0.00,WeatherCatV1.10B1784,2013-06-17 05:06:00,
2013-06-17 01:11:00,65.6,58.2,29.74,West,271,0.0,7.0,77,0.00,,,0.00,WeatherCatV1.10B1784,2013-06-17 05:11:00,
2013-06-17 01:16:00,65.5,57.7,29.74,WNW,292,2.0,4.0,76,0.00,,,0.00,WeatherCatV1.10B1784,2013-06-17 05:16:00,
2013-06-17 01:21:00,65.5,57.7,29.74,WNW,295,0.0,5.0,76,0.00,,,0.00,WeatherCatV1.10B1784,2013-06-17 05:21:00,
2013-06-17 01:26:00,65.3,57.9,29.73,West,281,0.0,3.0,77,0.00,,,0.00,WeatherCatV1.10B1784,2013-06-17 05:26:00,
2013-06-17 01:31:00,65.1,57.7,29.74,WNW,288,0.0,4.0,77,0.00,,,0.00,WeatherCatV1.10B1784,2013-06-17 05:31:00,
2013-06-17 01:36:00,65.0,58.0,29.74,WNW,298,1.0,8.0,78,0.00,,,0.00,WeatherCatV1.10B1784,2013-06-17 05:36:00,
2013-06-17 01:41:00,64.9,57.9,29.74,WNW,303,1.0,4.0,78,0.00,,,0.00,WeatherCatV1.10B1784,2013-06-17 05:41:00,
2013-06-17 01:46:00,64.8,57.8,29.74,SW,235,1.0,7.0,78,0.00,,,0.00,WeatherCatV1.10B1784,2013-06-17 05:46:00,
2013-06-17 01:51:00,64.9,57.9,29.75,WNW,291,3.0,5.0,78,0.00,,,0.00,WeatherCatV1.10B1784,2013-06-17 05:51:00,
2013-06-17 01:56:00,64.7,57.7,29.75,WSW,252,1.0,6.0,78,0.00,,,0.00,WeatherCatV1.10B1784,2013-06-17 05:56:00,
2013-06-17 02:01:00,64.5,57.8,29.75,WNW,285,0.0,8.0,79,0.00,,,0.00,WeatherCatV1.10B1784,2013-06-17 06:01:00,
2013-06-17 02:06:00,64.3,57.6,29.75,West,281,0.0,2.0,79,0.00,,,0.00,WeatherCatV1.10B1784,2013-06-17 06:06:00,
2013-06-17 02:11:00,64.1,57.8,29.75,NW,306,3.0,6.0,80,0.00,,,0.00,WeatherCatV1.10B1784,2013-06-17 06:11:00,
2013-06-17 02:16:00,64.0,57.7,29.75,WNW,302,2.0,2.0,80,0.00,,,0.00,WeatherCatV1.10B1784,2013-06-17 06:16:00,
2013-06-17 02:21:00,63.8,57.5,29.75,WNW,287,1.0,3.0,80,0.00,,,0.00,WeatherCatV1.10B1784,2013-06-17 06:21:00,
2013-06-17 02:26:00,63.8,57.5,29.75,NW,306,6.0,6.0,80,0.00,,,0.00,WeatherCatV1.10B1784,2013-06-17 06:26:00,
2013-06-17 02:31:00,63.9,57.6,29.76,WNW,302,0.0,3.0,80,0.00,,,0.00,WeatherCatV1.10B1784,2013-06-17 06:31:00,
2013-06-17 02:36:00,63.8,57.5,29.76,WNW,296,0.0,5.0,80,0.00,,,0.00,WeatherCatV1.10B1784,2013-06-17 06:36:00,
2013-06-17 02:41:00,63.8,57.5,29.76,West,262,0.0,5.0,80,0.00,,,0.00,WeatherCatV1.10B1784,2013-06-17 06:41:00,
2013-06-17 02:46:00,63.8,57.5,29.76,NW,310,1.0,2.0,80,0.00,,,0.00,WeatherCatV1.10B1784,2013-06-17 06:46:00,
2013-06-17 02:51:00,63.8,57.5,29.75,West,281,1.0,5.0,80,0.00,,,0.00,WeatherCatV1.10B1784,2013-06-17 06:51:00,
2013-06-17 02:56:00,63.9,57.6,29.76,WNW,300,0.0,7.0,80,0.00,,,0.00,WeatherCatV1.10B1784,2013-06-17 06:56:00,
2013-06-17 03:01:00,63.8,57.5,29.76,WNW,302,2.0,2.0,80,0.00,,,0.00,WeatherCatV1.10B1784,2013-06-17 07:01:00,
2013-06-17 03:06:00,63.9,57.6,29.76,West,273,3.0,7.0,80,0.00,,,0.00,WeatherCatV1.10B1784,2013-06-17 07:06:00,
2013-06-17 03:11:00,63.9,57.6,29.76,SW,235,0.0,6.0,80,0.00,,,0.00,WeatherCatV1.10B1784,2013-06-17 07:11:00,
2013-06-17 03:16:00,63.8,57.5,29.76,WSW,244,1.0,7.0,80,0.00,,,0.00,WeatherCatV1.10B1784,2013-06-17 07:16:00,
2013-06-17 03:21:00,63.8,57.5,29.76,West,262,3.0,5.0,80,0.00,,,0.00,WeatherCatV1.10B1784,2013-06-17 07:21:00,
2013-06-17 03:26:00,63.8,57.5,29.76,West,277,0.0,2.0,80,0.00,,,0.00,WeatherCatV1.10B1784,2013-06-17 07:26:00,
2013-06-17 03:31:00,63.7,57.4,29.76,WNW,287,0.0,5.0,80,0.00,,,0.00,WeatherCatV1.10B1784,2013-06-17 07:31:00,
2013-06-17 03:36:00,63.6,57.3,29.75,WNW,284,0.0,3.0,80,0.00,,,0.00,WeatherCatV1.10B1784,2013-06-17 07:36:00,
2013-06-17 03:41:00,63.5,57.2,29.76,WNW,284,0.0,0.0,80,0.00,,,0.00,WeatherCatV1.10B1784,2013-06-17 07:41:00,
2013-06-17 03:46:00,63.3,57.4,29.76,WNW,284,0.0,2.0,81,0.00,,,0.00,WeatherCatV1.10B1784,2013-06-17 07:46:00,
2013-06-17 03:51:00,63.1,57.2,29.76,WNW,284,0.0,3.0,81,0.00,,,0.00,WeatherCatV1.10B1784,2013-06-17 07:51:00,
2013-06-17 03:56:00,62.9,57.3,29.77,WNW,288,0.0,3.0,82,0.00,,,0.00,WeatherCatV1.10B1784,2013-06-17 07:56:00,
2013-06-17 04:01:00,62.7,57.1,29.77,WNW,292,0.0,4.0,82,0.00,,,0.00,WeatherCatV1.10B1784,2013-06-17 08:01:00,
2013-06-17 04:06:00,62.6,57.0,29.77,WNW,292,0.0,1.0,82,0.00,,,0.00,WeatherCatV1.10B1784,2013-06-17 08:06:00,
2013-06-17 04:11:00,62.6,57.0,29.77,WNW,292,0.0,3.0,82,0.00,,,0.00,WeatherCatV1.10B1784,2013-06-17 08:11:00,
2013-06-17 04:16:00,62.8,57.2,29.77,WNW,292,0.0,4.0,82,0.00,,,0.00,WeatherCatV1.10B1784,2013-06-17 08:16:00,
2013-06-17 04:21:00,63.0,57.4,29.77,WNW,292,0.0,2.0,82,0.00,,,0.00,WeatherCatV1.10B1784,2013-06-17 08:21:00,
2013-06-17 04:26:00,63.1,57.2,29.78,WSW,241,3.0,8.0,81,0.00,,,0.00,WeatherCatV1.10B1784,2013-06-17 08:26:00,
2013-06-17 04:31:00,63.1,57.2,29.78,WSW,248,0.0,0.0,81,0.00,,,0.00,WeatherCatV1.10B1784,2013-06-17 08:31:00,
2013-06-17 04:36:00,63.0,57.4,29.78,WSW,245,2.0,5.0,82,0.00,,,0.00,WeatherCatV1.10B1784,2013-06-17 08:36:00,
2013-06-17 04:41:00,62.9,57.3,29.78,WSW,245,2.0,2.0,82,0.00,,,0.00,WeatherCatV1.10B1784,2013-06-17 08:41:00,
2013-06-17 04:46:00,62.8,57.2,29.78,WSW,246,0.0,4.0,82,0.00,,,0.00,WeatherCatV1.10B1784,2013-06-17 08:46:00,
2013-06-17 04:51:00,62.7,57.5,29.78,WSW,246,0.0,0.0,83,0.00,,,0.00,WeatherCatV1.10B1784,2013-06-17 08:51:00,
2013-06-17 04:56:00,62.6,57.4,29.78,WSW,246,0.0,0.0,83,0.00,,,0.00,WeatherCatV1.10B1784,2013-06-17 08:56:00,
2013-06-17 05:01:00,62.5,57.3,29.79,WSW,246,0.0,3.0,83,0.00,,,0.00,WeatherCatV1.10B1784,2013-06-17 09:01:00,
2013-06-17 05:06:00,62.5,57.3,29.78,WSW,246,0.0,0.0,83,0.00,,,0.00,WeatherCatV1.10B1784,2013-06-17 09:06:00,
2013-06-17 05:11:00,62.3,57.4,29.78,WSW,246,0.0,0.0,84,0.00,,,0.00,WeatherCatV1.10B1784,2013-06-17 09:11:00,
2013-06-17 05:16:00,62.2,57.3,29.78,WSW,246,0.0,1.0,84,0.00,,,0.00,WeatherCatV1.10B1784,2013-06-17 09:16:00,
2013-06-17 05:21:00,62.2,57.3,29.79,WSW,246,1.0,2.0,84,0.00,,,0.00,WeatherCatV1.10B1784,2013-06-17 09:21:00,
2013-06-17 05:26:00,62.1,57.2,29.79,WSW,247,0.0,3.0,84,0.00,,,0.00,WeatherCatV1.10B1784,2013-06-17 09:26:00,
2013-06-17 05:31:00,62.4,57.2,29.79,WSW,245,0.0,4.0,83,0.00,,,0.00,WeatherCatV1.10B1784,2013-06-17 09:31:00,
2013-06-17 05:36:00,62.8,57.6,29.79,WSW,240,0.0,7.0,83,0.00,,,0.00,WeatherCatV1.10B1784,2013-06-17 09:36:00,
2013-06-17 05:41:00,63.0,57.8,29.79,SSW,205,0.0,4.0,83,0.00,,,0.00,WeatherCatV1.10B1784,2013-06-17 09:41:00,
2013-06-17 05:46:00,63.1,57.8,29.79,WSW,257,0.0,1.0,83,0.00,,,0.00,WeatherCatV1.10B1784,2013-06-17 09:46:00,
2013-06-17 05:51:00,63.1,58.2,29.80,WNW,282,0.0,4.0,84,0.00,,,0.00,WeatherCatV1.10B1784,2013-06-17 09:51:00,
2013-06-17 05:56:00,63.2,58.3,29.79,WNW,282,0.0,0.0,84,0.00,,,0.00,WeatherCatV1.10B1784,2013-06-17 09:56:00,
2013-06-17 06:01:00,63.4,58.5,29.79,WNW,282,2.0,4.0,84,0.00,,,0.00,WeatherCatV1.10B1784,2013-06-17 10:01:00,
2013-06-17 06:05:00,63.5,58.6,29.79,West,279,1.0,3.0,84,0.00,,,0.00,WeatherCatV1.10B1784,2013-06-17 10:05:00,
2013-06-17 06:10:00,63.5,58.6,29.79,West,279,1.0,3.0,84,0.00,,,0.00,WeatherCatV1.10B1784,2013-06-17 10:10:00,
2013-06-17 06:15:00,63.3,58.4,29.79,WSW,248,1.0,7.0,84,0.00,,,0.00,WeatherCatV1.10B1784,2013-06-17 10:15:00,
2013-06-17 06:20:00,63.3,58.4,29.79,WSW,248,1.0,7.0,84,0.00,,,0.00,WeatherCatV1.10B1784,2013-06-17 10:20:00,
2013-06-17 06:25:00,63.3,58.4,29.79,WSW,248,1.0,7.0,84,0.00,,,0.00,WeatherCatV1.10B1784,2013-06-17 10:25:00,
2013-06-17 06:30:00,63.3,58.4,29.79,WSW,248,1.0,7.0,84,0.00,,,0.00,WeatherCatV1.10B1784,2013-06-17 10:30:00,
2013-06-17 06:35:00,63.3,58.4,29.79,WSW,248,1.0,7.0,84,0.00,,,0.00,WeatherCatV1.10B1784,2013-06-17 10:35:00,
2013-06-17 06:40:00,63.3,58.4,29.79,WSW,248,1.0,7.0,84,0.00,,,0.00,WeatherCatV1.10B1784,2013-06-17 10:40:00,
2013-06-17 06:45:00,64.5,59.6,29.80,WSW,248,2.0,11.0,84,0.00,,,0.00,WeatherCatV1.10B1784,2013-06-17 10:45:00,
2013-06-17 06:50:00,64.5,59.6,29.80,WSW,248,2.0,11.0,84,0.00,,,0.00,WeatherCatV1.10B1784,2013-06-17 10:50:00,
2013-06-17 06:55:00,64.5,59.6,29.80,WSW,248,2.0,11.0,84,0.00,,,0.00,WeatherCatV1.10B1784,2013-06-17 10:55:00,
2013-06-17 07:00:00,64.5,59.6,29.80,WSW,248,2.0,11.0,84,0.00,,,0.00,WeatherCatV1.10B1784,2013-06-17 11:00:00,
2013-06-17 07:05:00,64.5,59.6,29.80,WSW,248,2.0,11.0,84,0.00,,,0.00,WeatherCatV1.10B1784,2013-06-17 11:05:00,
2013-06-17 07:10:00,64.5,59.6,29.80,WSW,248,2.0,11.0,84,0.00,,,0.00,WeatherCatV1.10B1784,2013-06-17 11:10:00,
2013-06-17 07:15:00,65.8,60.5,29.80,WSW,248,3.0,12.0,83,0.00,,,0.00,WeatherCatV1.10B1784,2013-06-17 11:15:00,
2013-06-17 07:20:00,65.8,60.5,29.80,WSW,248,3.0,12.0,83,0.00,,,0.00,WeatherCatV1.10B1784,2013-06-17 11:20:00,
2013-06-17 07:25:00,65.8,60.5,29.80,WSW,248,3.0,12.0,83,0.00,,,0.00,WeatherCatV1.10B1784,2013-06-17 11:25:00,
2013-06-17 07:30:00,65.8,60.5,29.80,WSW,248,3.0,12.0,83,0.00,,,0.00,WeatherCatV1.10B1784,2013-06-17 11:30:00,
2013-06-17 07:35:00,65.8,60.5,29.80,WSW,248,3.0,12.0,83,0.00,,,0.00,WeatherCatV1.10B1784,2013-06-17 11:35:00,
2013-06-17 07:40:00,65.8,60.5,29.80,WSW,248,3.0,12.0,83,0.00,,,0.00,WeatherCatV1.10B1784,2013-06-17 11:40:00,
2013-06-17 07:45:00,67.4,61.4,29.81,WSW,248,3.0,11.0,81,0.00,,,0.00,WeatherCatV1.10B1784,2013-06-17 11:45:00,
2013-06-17 07:50:00,67.4,61.4,29.81,WSW,248,3.0,11.0,81,0.00,,,0.00,WeatherCatV1.10B1784,2013-06-17 11:50:00,
2013-06-17 07:55:00,67.4,61.4,29.81,WSW,248,3.0,11.0,81,0.00,,,0.00,WeatherCatV1.10B1784,2013-06-17 11:55:00,
2013-06-17 08:00:00,67.4,61.4,29.81,WSW,248,3.0,11.0,81,0.00,,,0.00,WeatherCatV1.10B1784,2013-06-17 12:00:00,
2013-06-17 08:05:00,67.4,61.4,29.81,WSW,248,3.0,11.0,81,0.00,,,0.00,WeatherCatV1.10B1784,2013-06-17 12:05:00,
2013-06-17 08:10:00,67.4,61.4,29.81,WSW,248,3.0,11.0,81,0.00,,,0.00,WeatherCatV1.10B1784,2013-06-17 12:10:00,
2013-06-17 08:15:00,68.9,62.5,29.81,SW,225,4.0,13.0,80,0.00,,,0.00,WeatherCatV1.10B1784,2013-06-17 12:15:00,
2013-06-17 08:20:00,68.9,62.5,29.81,SW,225,4.0,13.0,80,0.00,,,0.00,WeatherCatV1.10B1784,2013-06-17 12:20:00,
2013-06-17 08:25:00,68.9,62.5,29.81,SW,225,4.0,13.0,80,0.00,,,0.00,WeatherCatV1.10B1784,2013-06-17 12:25:00,
2013-06-17 08:30:00,68.9,62.5,29.81,SW,225,4.0,13.0,80,0.00,,,0.00,WeatherCatV1.10B1784,2013-06-17 12:30:00,
2013-06-17 08:35:00,68.9,62.5,29.81,SW,225,4.0,13.0,80,0.00,,,0.00,WeatherCatV1.10B1784,2013-06-17 12:35:00,
2013-06-17 08:40:00,68.9,62.5,29.81,SW,225,4.0,13.0,80,0.00,,,0.00,WeatherCatV1.10B1784,2013-06-17 12:40:00,
2013-06-17 08:45:00,68.9,62.5,29.81,SW,225,4.0,13.0,80,0.00,,,0.00,WeatherCatV1.10B1784,2013-06-17 12:45:00,
2013-06-17 08:50:00,70.5,62.6,29.81,WSW,248,3.0,10.0,76,0.00,,,0.00,WeatherCatV1.10B1784,2013-06-17 12:50:00,
2013-06-17 08:55:00,70.5,62.6,29.81,WSW,248,3.0,10.0,76,0.00,,,0.00,WeatherCatV1.10B1784,2013-06-17 12:55:00,
2013-06-17 09:00:00,70.5,62.6,29.81,WSW,248,3.0,10.0,76,0.00,,,0.00,WeatherCatV1.10B1784,2013-06-17 13:00:00,
2013-06-17 09:05:00,70.5,62.6,29.81,WSW,248,3.0,10.0,76,0.00,,,0.00,WeatherCatV1.10B1784,2013-06-17 13:05:00,
2013-06-17 09:10:00,70.5,62.6,29.81,WSW,248,3.0,10.0,76,0.00,,,0.00,WeatherCatV1.10B1784,2013-06-17 13:10:00,
2013-06-17 09:15:00,72.5,63.3,29.81,WSW,248,3.0,12.0,73,0.00,,,0.00,WeatherCatV1.10B1784,2013-06-17 13:15:00,
2013-06-17 09:20:00,72.5,63.3,29.81,WSW,248,3.0,12.0,73,0.00,,,0.00,WeatherCatV1.10B1784,2013-06-17 13:20:00,
2013-06-17 09:25:00,72.5,63.3,29.81,WSW,248,3.0,12.0,73,0.00,,,0.00,WeatherCatV1.10B1784,2013-06-17 13:25:00,
2013-06-17 09:30:00,72.5,63.3,29.81,WSW,248,3.0,12.0,73,0.00,,,0.00,WeatherCatV1.10B1784,2013-06-17 13:30:00,
2013-06-17 09:35:00,72.5,63.3,29.81,WSW,248,3.0,12.0,73,0.00,,,0.00,WeatherCatV1.10B1784,2013-06-17 13:35:00,
2013-06-17 09:40:00,72.5,63.3,29.81,WSW,248,3.0,12.0,73,0.00,,,0.00,WeatherCatV1.10B1784,2013-06-17 13:40:00,
2013-06-17 09:45:00,74.0,62.3,29.81,SW,225,3.0,13.0,67,0.00,,,0.00,WeatherCatV1.10B1784,2013-06-17 13:45:00,
2013-06-17 09:50:00,74.0,62.3,29.81,SW,225,3.0,13.0,67,0.00,,,0.00,WeatherCatV1.10B1784,2013-06-17 13:50:00,
2013-06-17 09:55:00,74.0,62.3,29.81,SW,225,3.0,13.0,67,0.00,,,0.00,WeatherCatV1.10B1784,2013-06-17 13:55:00,
2013-06-17 10:00:00,74.0,62.3,29.81,SW,225,3.0,13.0,67,0.00,,,0.00,WeatherCatV1.10B1784,2013-06-17 14:00:00,
2013-06-17 10:05:00,74.0,62.3,29.81,SW,225,3.0,13.0,67,0.00,,,0.00,WeatherCatV1.10B1784,2013-06-17 14:05:00,
2013-06-17 10:10:00,74.0,62.3,29.81,SW,225,3.0,13.0,67,0.00,,,0.00,WeatherCatV1.10B1784,2013-06-17 14:10:00,
2013-06-17 10:15:00,75.8,64.0,29.80,West,270,1.0,9.0,67,0.00,,,0.00,WeatherCatV1.10B1784,2013-06-17 14:15:00,
2013-06-17 10:20:00,75.8,64.0,29.80,West,270,1.0,9.0,67,0.00,,,0.00,WeatherCatV1.10B1784,2013-06-17 14:20:00,
2013-06-17 10:25:00,75.8,64.0,29.80,West,270,1.0,9.0,67,0.00,,,0.00,WeatherCatV1.10B1784,2013-06-17 14:25:00,
2013-06-17 10:30:00,75.8,64.0,29.80,West,270,1.0,9.0,67,0.00,,,0.00,WeatherCatV1.10B1784,2013-06-17 14:30:00,
2013-06-17 10:35:00,75.8,64.0,29.80,West,270,1.0,9.0,67,0.00,,,0.00,WeatherCatV1.10B1784,2013-06-17 14:35:00,
2013-06-17 10:40:00,75.8,64.0,29.80,West,270,1.0,9.0,67,0.00,,,0.00,WeatherCatV1.10B1784,2013-06-17 14:40:00,
2013-06-17 10:45:00,77.0,63.0,29.80,WNW,292,2.0,9.0,62,0.00,,,0.00,WeatherCatV1.10B1784,2013-06-17 14:45:00,
2013-06-17 10:50:00,77.0,63.0,29.80,WNW,292,2.0,9.0,62,0.00,,,0.00,WeatherCatV1.10B1784,2013-06-17 14:50:00,
2013-06-17 10:55:00,77.0,63.0,29.80,WNW,292,2.0,9.0,62,0.00,,,0.00,WeatherCatV1.10B1784,2013-06-17 14:55:00,
2013-06-17 11:00:00,77.0,63.0,29.80,WNW,292,2.0,9.0,62,0.00,,,0.00,WeatherCatV1.10B1784,2013-06-17 15:00:00,
2013-06-17 11:05:00,77.0,63.0,29.80,WNW,292,2.0,9.0,62,0.00,,,0.00,WeatherCatV1.10B1784,2013-06-17 15:05:00,
2013-06-17 11:10:00,77.0,63.0,29.80,WNW,292,2.0,9.0,62,0.00,,,0.00,WeatherCatV1.10B1784,2013-06-17 15:10:00,
2013-06-17 11:15:00,77.5,61.5,29.80,WSW,248,2.0,12.0,58,0.00,,,0.00,WeatherCatV1.10B1784,2013-06-17 15:15:00,
2013-06-17 11:20:00,77.5,61.5,29.80,WSW,248,2.0,12.0,58,0.00,,,0.00,WeatherCatV1.10B1784,2013-06-17 15:20:00,
2013-06-17 11:25:00,77.5,61.5,29.80,WSW,248,2.0,12.0,58,0.00,,,0.00,WeatherCatV1.10B1784,2013-06-17 15:25:00,
2013-06-17 11:30:00,77.5,61.5,29.80,WSW,248,2.0,12.0,58,0.00,,,0.00,WeatherCatV1.10B1784,2013-06-17 15:30:00,
2013-06-17 11:35:00,77.5,61.5,29.80,WSW,248,2.0,12.0,58,0.00,,,0.00,WeatherCatV1.10B1784,2013-06-17 15:35:00,
2013-06-17 11:40:00,77.5,61.5,29.80,WSW,248,2.0,12.0,58,0.00,,,0.00,WeatherCatV1.10B1784,2013-06-17 15:40:00,
2013-06-17 11:45:00,78.1,61.6,29.79,WSW,248,2.0,8.0,57,0.00,,,0.00,WeatherCatV1.10B1784,2013-06-17 15:45:00,
2013-06-17 11:50:00,78.1,61.6,29.79,WSW,248,2.0,8.0,57,0.00,,,0.00,WeatherCatV1.10B1784,2013-06-17 15:50:00,
2013-06-17 11:55:00,78.1,61.6,29.79,WSW,248,2.0,8.0,57,0.00,,,0.00,WeatherCatV1.10B1784,2013-06-17 15:55:00,
2013-06-17 12:00:00,78.1,61.6,29.79,WSW,248,2.0,8.0,57,0.00,,,0.00,WeatherCatV1.10B1784,2013-06-17 16:00:00,
2013-06-17 12:05:00,78.1,61.6,29.79,WSW,248,2.0,8.0,57,0.00,,,0.00,WeatherCatV1.10B1784,2013-06-17 16:05:00,
2013-06-17 12:10:00,78.1,61.6,29.79,WSW,248,2.0,8.0,57,0.00,,,0.00,WeatherCatV1.10B1784,2013-06-17 16:10:00,
2013-06-17 12:15:00,78.1,61.6,29.79,WSW,248,2.0,8.0,57,0.00,,,0.00,WeatherCatV1.10B1784,2013-06-17 16:15:00,
2013-06-17 12:20:00,79.1,62.5,29.78,WSW,248,2.0,12.0,57,0.00,,,0.00,WeatherCatV1.10B1784,2013-06-17 16:20:00,
2013-06-17 12:25:00,79.1,62.5,29.78,WSW,248,2.0,12.0,57,0.00,,,0.00,WeatherCatV1.10B1784,2013-06-17 16:25:00,
2013-06-17 12:30:00,79.1,62.5,29.78,WSW,248,2.0,12.0,57,0.00,,,0.00,WeatherCatV1.10B1784,2013-06-17 16:30:00,
2013-06-17 12:35:00,79.1,62.5,29.78,WSW,248,2.0,12.0,57,0.00,,,0.00,WeatherCatV1.10B1784,2013-06-17 16:35:00,
2013-06-17 12:40:00,79.1,62.5,29.78,WSW,248,2.0,12.0,57,0.00,,,0.00,WeatherCatV1.10B1784,2013-06-17 16:40:00,
2013-06-17 12:45:00,80.0,61.8,29.78,WSW,248,2.0,8.0,54,0.00,,,0.00,WeatherCatV1.10B1784,2013-06-17 16:45:00,
2013-06-17 12:50:00,80.0,61.8,29.78,WSW,248,2.0,8.0,54,0.00,,,0.00,WeatherCatV1.10B1784,2013-06-17 16:50:00,
2013-06-17 12:55:00,80.0,61.8,29.78,WSW,248,2.0,8.0,54,0.00,,,0.00,WeatherCatV1.10B1784,2013-06-17 16:55:00,
2013-06-17 13:00:00,80.0,61.8,29.78,WSW,248,2.0,8.0,54,0.00,,,0.00,WeatherCatV1.10B1784,2013-06-17 17:00:00,
2013-06-17 13:05:00,80.0,61.8,29.78,WSW,248,2.0,8.0,54,0.00,,,0.00,WeatherCatV1.10B1784,2013-06-17 17:05:00,
2013-06-17 13:10:00,80.0,61.8,29.78,WSW,248,2.0,8.0,54,0.00,,,0.00,WeatherCatV1.10B1784,2013-06-17 17:10:00,
2013-06-17 13:15:00,80.0,61.8,29.78,WSW,248,3.0,9.0,54,0.00,,,0.00,WeatherCatV1.10B1784,2013-06-17 17:15:00,
2013-06-17 13:20:00,80.0,61.8,29.78,WSW,248,3.0,9.0,54,0.00,,,0.00,WeatherCatV1.10B1784,2013-06-17 17:20:00,
2013-06-17 13:25:00,80.0,61.8,29.78,WSW,248,3.0,9.0,54,0.00,,,0.00,WeatherCatV1.10B1784,2013-06-17 17:25:00,
2013-06-17 13:30:00,80.0,61.8,29.78,WSW,248,3.0,9.0,54,0.00,,,0.00,WeatherCatV1.10B1784,2013-06-17 17:30:00,
2013-06-17 13:35:00,80.0,61.8,29.78,WSW,248,3.0,9.0,54,0.00,,,0.00,WeatherCatV1.10B1784,2013-06-17 17:35:00,
2013-06-17 13:40:00,80.0,61.8,29.78,WSW,248,3.0,9.0,54,0.00,,,0.00,WeatherCatV1.10B1784,2013-06-17 17:40:00,
2013-06-17 13:45:00,80.0,61.8,29.78,WSW,248,3.0,9.0,54,0.00,,,0.00,WeatherCatV1.10B1784,2013-06-17 17:45:00,
2013-06-17 13:50:00,80.6,62.4,29.77,WSW,248,3.0,11.0,54,0.00,,,0.00,WeatherCatV1.10B1784,2013-06-17 17:50:00,
2013-06-17 13:55:00,80.6,62.4,29.77,WSW,248,3.0,11.0,54,0.00,,,0.00,WeatherCatV1.10B1784,2013-06-17 17:55:00,
2013-06-17 14:00:00,80.6,62.4,29.77,WSW,248,3.0,11.0,54,0.00,,,0.00,WeatherCatV1.10B1784,2013-06-17 18:00:00,
2013-06-17 14:05:00,80.6,62.4,29.77,WSW,248,3.0,11.0,54,0.00,,,0.00,WeatherCatV1.10B1784,2013-06-17 18:05:00,
2013-06-17 14:10:00,80.6,62.4,29.77,WSW,248,3.0,11.0,54,0.00,,,0.00,WeatherCatV1.10B1784,2013-06-17 18:10:00,
2013-06-17 14:15:00,81.2,61.9,29.76,WSW,248,3.0,12.0,52,0.00,,,0.00,WeatherCatV1.10B1784,2013-06-17 18:15:00,
2013-06-17 14:20:00,81.2,61.9,29.76,WSW,248,3.0,12.0,52,0.00,,,0.00,WeatherCatV1.10B1784,2013-06-17 18:20:00,
2013-06-17 14:25:00,81.2,61.9,29.76,WSW,248,3.0,12.0,52,0.00,,,0.00,WeatherCatV1.10B1784,2013-06-17 18:25:00,
2013-06-17 14:30:00,81.2,61.9,29.76,WSW,248,3.0,12.0,52,0.00,,,0.00,WeatherCatV1.10B1784,2013-06-17 18:30:00,
2013-06-17 14:35:00,81.2,61.9,29.76,WSW,248,3.0,12.0,52,0.00,,,0.00,WeatherCatV1.10B1784,2013-06-17 18:35:00,
2013-06-17 14:40:00,81.2,61.9,29.76,WSW,248,3.0,12.0,52,0.00,,,0.00,WeatherCatV1.10B1784,2013-06-17 18:40:00,
2013-06-17 14:45:00,81.4,60.9,29.75,WSW,248,3.0,14.0,50,0.00,,,0.00,WeatherCatV1.10B1784,2013-06-17 18:45:00,
2013-06-17 14:50:00,81.4,60.9,29.75,WSW,248,3.0,14.0,50,0.00,,,0.00,WeatherCatV1.10B1784,2013-06-17 18:50:00,
2013-06-17 14:55:00,81.4,60.9,29.75,WSW,248,3.0,14.0,50,0.00,,,0.00,WeatherCatV1.10B1784,2013-06-17 18:55:00,
2013-06-17 15:00:00,81.4,60.9,29.75,WSW,248,3.0,14.0,50,0.00,,,0.00,WeatherCatV1.10B1784,2013-06-17 19:00:00,
2013-06-17 15:05:00,81.4,60.9,29.75,WSW,248,3.0,14.0,50,0.00,,,0.00,WeatherCatV1.10B1784,2013-06-17 19:05:00,
2013-06-17 15:10:00,81.4,60.9,29.75,WSW,248,3.0,14.0,50,0.00,,,0.00,WeatherCatV1.10B1784,2013-06-17 19:10:00,
2013-06-17 15:15:00,81.9,60.8,29.75,WSW,248,3.0,16.0,49,0.00,,,0.00,WeatherCatV1.10B1784,2013-06-17 19:15:00,
2013-06-17 15:20:00,81.9,60.8,29.75,WSW,248,3.0,16.0,49,0.00,,,0.00,WeatherCatV1.10B1784,2013-06-17 19:20:00,
2013-06-17 15:25:00,81.9,60.8,29.75,WSW,248,3.0,16.0,49,0.00,,,0.00,WeatherCatV1.10B1784,2013-06-17 19:25:00,
2013-06-17 15:30:00,81.9,60.8,29.75,WSW,248,3.0,16.0,49,0.00,,,0.00,WeatherCatV1.10B1784,2013-06-17 19:30:00,
2013-06-17 15:35:00,81.9,60.8,29.75,WSW,248,3.0,16.0,49,0.00,,,0.00,WeatherCatV1.10B1784,2013-06-17 19:35:00,
2013-06-17 15:40:00,81.9,60.8,29.75,WSW,248,3.0,16.0,49,0.00,,,0.00,WeatherCatV1.10B1784,2013-06-17 19:40:00,
2013-06-17 15:45:00,81.9,60.8,29.75,WSW,248,3.0,16.0,49,0.00,,,0.00,WeatherCatV1.10B1784,2013-06-17 19:45:00,
2013-06-17 15:50:00,81.2,64.0,29.75,WSW,248,1.0,14.0,56,0.00,,,0.00,WeatherCatV1.10B1784,2013-06-17 19:50:00,
2013-06-17 15:55:00,81.2,64.0,29.75,WSW,248,1.0,14.0,56,0.00,,,0.00,WeatherCatV1.10B1784,2013-06-17 19:55:00,
2013-06-17 16:00:00,81.2,64.0,29.75,WSW,248,1.0,14.0,56,0.00,,,0.00,WeatherCatV1.10B1784,2013-06-17 20:00:00,
2013-06-17 16:05:00,81.2,64.0,29.75,WSW,248,1.0,14.0,56,0.00,,,0.00,WeatherCatV1.10B1784,2013-06-17 20:05:00,
2013-06-17 16:10:00,81.2,64.0,29.75,WSW,248,1.0,14.0,56,0.00,,,0.00,WeatherCatV1.10B1784,2013-06-17 20:10:00,
2013-06-17 16:15:00,81.3,62.5,29.75,West,270,0.0,6.0,53,0.00,,,0.00,WeatherCatV1.10B1784,2013-06-17 20:15:00,
2013-06-17 16:20:00,81.3,62.5,29.75,West,270,0.0,6.0,53,0.00,,,0.00,WeatherCatV1.10B1784,2013-06-17 20:20:00,
2013-06-17 16:25:00,81.3,62.5,29.75,West,270,0.0,6.0,53,0.00,,,0.00,WeatherCatV1.10B1784,2013-06-17 20:25:00,
2013-06-17 16:30:00,81.3,62.5,29.75,West,270,0.0,6.0,53,0.00,,,0.00,WeatherCatV1.10B1784,2013-06-17 20:30:00,
2013-06-17 16:35:00,81.3,62.5,29.75,West,270,0.0,6.0,53,0.00,,,0.00,WeatherCatV1.10B1784,2013-06-17 20:35:00,
2013-06-17 16:40:00,81.3,62.5,29.75,West,270,0.0,6.0,53,0.00,,,0.00,WeatherCatV1.10B1784,2013-06-17 20:40:00,
2013-06-17 16:45:00,72.3,65.0,29.76,WNW,292,0.0,3.0,78,0.00,,,0.00,WeatherCatV1.10B1784,2013-06-17 20:45:00,
2013-06-17 16:50:00,72.3,65.0,29.76,WNW,292,0.0,3.0,78,0.00,,,0.00,WeatherCatV1.10B1784,2013-06-17 20:50:00,
2013-06-17 16:55:00,72.3,65.0,29.76,WNW,292,0.0,3.0,78,0.00,,,0.00,WeatherCatV1.10B1784,2013-06-17 20:55:00,
2013-06-17 17:00:00,72.3,65.0,29.76,WNW,292,0.0,3.0,78,0.00,,,0.00,WeatherCatV1.10B1784,2013-06-17 21:00:00,
2013-06-17 17:05:00,72.3,65.0,29.76,WNW,292,0.0,3.0,78,0.00,,,0.00,WeatherCatV1.10B1784,2013-06-17 21:05:00,
2013-06-17 17:10:00,72.3,65.0,29.76,WNW,292,0.0,3.0,78,0.00,,,0.00,WeatherCatV1.10B1784,2013-06-17 21:10:00,
2013-06-17 17:15:00,72.3,65.0,29.76,WNW,292,0.0,3.0,78,0.00,,,0.00,WeatherCatV1.10B1784,2013-06-17 21:15:00,
2013-06-17 17:20:00,65.9,61.6,29.80,WNW,292,1.0,13.0,86,0.00,,,0.00,WeatherCatV1.10B1784,2013-06-17 21:20:00,
2013-06-17 17:25:00,65.9,61.6,29.80,WNW,292,1.0,13.0,86,0.00,,,0.00,WeatherCatV1.10B1784,2013-06-17 21:25:00,
2013-06-17 17:30:00,65.9,61.6,29.80,WNW,292,1.0,13.0,86,0.00,,,0.00,WeatherCatV1.10B1784,2013-06-17 21:30:00,
2013-06-17 17:35:00,65.9,61.6,29.80,WNW,292,1.0,13.0,86,0.00,,,0.00,WeatherCatV1.10B1784,2013-06-17 21:35:00,
2013-06-17 17:40:00,65.9,61.6,29.80,WNW,292,1.0,13.0,86,0.00,,,0.00,WeatherCatV1.10B1784,2013-06-17 21:40:00,
2013-06-17 17:45:00,65.9,61.6,29.80,WNW,292,1.0,13.0,86,0.00,,,0.00,WeatherCatV1.10B1784,2013-06-17 21:45:00,
2013-06-17 17:50:00,61.3,58.9,29.82,NW,315,3.0,24.0,92,0.00,,,0.00,WeatherCatV1.10B1784,2013-06-17 21:50:00,
2013-06-17 17:55:00,61.3,58.9,29.82,NW,315,3.0,24.0,92,0.00,,,0.00,WeatherCatV1.10B1784,2013-06-17 21:55:00,
2013-06-17 18:00:00,61.3,58.9,29.82,NW,315,3.0,24.0,92,0.00,,,0.00,WeatherCatV1.10B1784,2013-06-17 22:00:00,
2013-06-17 18:05:00,61.3,58.9,29.82,NW,315,3.0,24.0,92,0.00,,,0.00,WeatherCatV1.10B1784,2013-06-17 22:05:00,
2013-06-17 18:10:00,61.3,58.9,29.82,NW,315,3.0,24.0,92,0.00,,,0.00,WeatherCatV1.10B1784,2013-06-17 22:10:00,
2013-06-17 18:15:00,61.4,59.4,29.79,NW,315,0.0,8.0,93,0.00,,,0.00,WeatherCatV1.10B1784,2013-06-17 22:15:00,
2013-06-17 18:20:00,61.4,59.4,29.79,NW,315,0.0,8.0,93,0.00,,,0.00,WeatherCatV1.10B1784,2013-06-17 22:20:00,
2013-06-17 18:25:00,61.4,59.4,29.79,NW,315,0.0,8.0,93,0.00,,,0.00,WeatherCatV1.10B1784,2013-06-17 22:25:00,
2013-06-17 18:30:00,61.4,59.4,29.79,NW,315,0.0,8.0,93,0.00,,,0.00,WeatherCatV1.10B1784,2013-06-17 22:30:00,
2013-06-17 18:35:00,61.4,59.4,29.79,NW,315,0.0,8.0,93,0.00,,,0.00,WeatherCatV1.10B1784,2013-06-17 22:35:00,
2013-06-17 18:40:00,61.4,59.4,29.79,NW,315,0.0,8.0,93,0.00,,,0.00,WeatherCatV1.10B1784,2013-06-17 22:40:00,
2013-06-17 18:45:00,61.4,59.4,29.79,NW,315,0.0,8.0,93,0.00,,,0.00,WeatherCatV1.10B1784,2013-06-17 22:45:00,
2013-06-17 18:50:00,62.1,60.3,29.79,WNW,292,0.0,4.0,94,0.00,,,0.00,WeatherCatV1.10B1784,2013-06-17 22:50:00,
2013-06-17 18:55:00,62.1,60.3,29.79,WNW,292,0.0,4.0,94,0.00,,,0.00,WeatherCatV1.10B1784,2013-06-17 22:55:00,
2013-06-17 19:00:00,62.1,60.3,29.79,WNW,292,0.0,4.0,94,0.00,,,0.00,WeatherCatV1.10B1784,2013-06-17 23:00:00,
2013-06-17 19:05:00,62.1,60.3,29.79,WNW,292,0.0,4.0,94,0.00,,,0.00,WeatherCatV1.10B1784,2013-06-17 23:05:00,
2013-06-17 19:10:00,62.1,60.3,29.79,WNW,292,0.0,4.0,94,0.00,,,0.00,WeatherCatV1.10B1784,2013-06-17 23:10:00,
2013-06-17 19:15:00,62.1,60.3,29.79,WNW,292,0.0,4.0,94,0.00,,,0.00,WeatherCatV1.10B1784,2013-06-17 23:15:00,
2013-06-17 19:20:00,63.2,61.1,29.79,West,270,0.0,4.0,93,0.00,,,0.00,WeatherCatV1.10B1784,2013-06-17 23:20:00,
2013-06-17 19:25:00,63.2,61.1,29.79,West,270,0.0,4.0,93,0.00,,,0.00,WeatherCatV1.10B1784,2013-06-17 23:25:00,
2013-06-17 19:30:00,63.2,61.1,29.79,West,270,0.0,4.0,93,0.00,,,0.00,WeatherCatV1.10B1784,2013-06-17 23:30:00,
2013-06-17 19:35:00,63.2,61.1,29.79,West,270,0.0,4.0,93,0.00,,,0.00,WeatherCatV1.10B1784,2013-06-17 23:35:00,
2013-06-17 19:40:00,63.2,61.1,29.79,West,270,0.0,4.0,93,0.00,,,0.00,WeatherCatV1.10B1784,2013-06-17 23:40:00,
2013-06-17 19:45:00,63.6,61.2,29.81,West,270,0.0,6.0,92,0.00,,,0.00,WeatherCatV1.10B1784,2013-06-17 23:45:00,
2013-06-17 19:50:00,63.6,61.2,29.81,West,270,0.0,6.0,92,0.00,,,0.00,WeatherCatV1.10B1784,2013-06-17 23:50:00,
2013-06-17 19:55:00,63.6,61.2,29.81,West,270,0.0,6.0,92,0.00,,,0.00,WeatherCatV1.10B1784,2013-06-17 23:55:00,
2013-06-17 20:00:00,63.6,61.2,29.81,West,270,0.0,6.0,92,0.00,,,0.00,WeatherCatV1.10B1784,2013-06-18 00:00:00,
2013-06-17 20:05:00,63.6,61.2,29.81,West,270,0.0,6.0,92,0.00,,,0.00,WeatherCatV1.10B1784,2013-06-18 00:05:00,
2013-06-17 20:10:00,63.6,61.2,29.81,West,270,0.0,6.0,92,0.00,,,0.00,WeatherCatV1.10B1784,2013-06-18 00:10:00,
2013-06-17 20:15:00,63.1,61.0,29.83,West,270,0.0,0.0,93,0.00,,,0.00,WeatherCatV1.10B1784,2013-06-18 00:15:00,
2013-06-17 20:20:00,63.1,61.0,29.83,West,270,0.0,0.0,93,0.00,,,0.00,WeatherCatV1.10B1784,2013-06-18 00:20:00,
2013-06-17 20:25:00,63.1,61.0,29.83,West,270,0.0,0.0,93,0.00,,,0.00,WeatherCatV1.10B1784,2013-06-18 00:25:00,
2013-06-17 20:30:00,63.1,61.0,29.83,West,270,0.0,0.0,93,0.00,,,0.00,WeatherCatV1.10B1784,2013-06-18 00:30:00,
2013-06-17 20:35:00,63.1,61.0,29.83,West,270,0.0,0.0,93,0.00,,,0.00,WeatherCatV1.10B1784,2013-06-18 00:35:00,
2013-06-17 20:40:00,63.1,61.0,29.83,West,270,0.0,0.0,93,0.00,,,0.00,WeatherCatV1.10B1784,2013-06-18 00:40:00,
2013-06-17 20:45:00,63.1,61.0,29.83,West,270,0.0,0.0,93,0.00,,,0.00,WeatherCatV1.10B1784,2013-06-18 00:45:00,
2013-06-17 20:50:00,62.2,60.4,29.82,West,270,0.0,1.0,94,0.00,,,0.00,WeatherCatV1.10B1784,2013-06-18 00:50:00,
2013-06-17 20:55:00,62.2,60.4,29.82,West,270,0.0,1.0,94,0.00,,,0.00,WeatherCatV1.10B1784,2013-06-18 00:55:00,
2013-06-17 21:00:00,62.2,60.4,29.82,West,270,0.0,1.0,94,0.00,,,0.00,WeatherCatV1.10B1784,2013-06-18 01:00:00,
2013-06-17 21:05:00,62.2,60.4,29.82,West,270,0.0,1.0,94,0.00,,,0.00,WeatherCatV1.10B1784,2013-06-18 01:05:00,
2013-06-17 21:10:00,62.2,60.4,29.82,West,270,0.0,1.0,94,0.00,,,0.00,WeatherCatV1.10B1784,2013-06-18 01:10:00,
2013-06-17 21:15:00,61.4,59.6,29.84,West,270,0.0,0.0,94,0.00,,,0.00,WeatherCatV1.10B1784,2013-06-18 01:15:00,
2013-06-17 21:20:00,61.4,59.6,29.84,West,270,0.0,0.0,94,0.00,,,0.00,WeatherCatV1.10B1784,2013-06-18 01:20:00,
2013-06-17 21:25:00,61.4,59.6,29.84,West,270,0.0,0.0,94,0.00,,,0.00,WeatherCatV1.10B1784,2013-06-18 01:25:00,
2013-06-17 21:30:00,61.4,59.6,29.84,West,270,0.0,0.0,94,0.00,,,0.00,WeatherCatV1.10B1784,2013-06-18 01:30:00,
2013-06-17 21:35:00,61.4,59.6,29.84,West,270,0.0,0.0,94,0.00,,,0.00,WeatherCatV1.10B1784,2013-06-18 01:35:00,
2013-06-17 21:40:00,61.4,59.6,29.84,West,270,0.0,0.0,94,0.00,,,0.00,WeatherCatV1.10B1784,2013-06-18 01:40:00,
2013-06-17 21:45:00,60.8,59.4,29.85,West,270,0.0,0.0,95,0.00,,,0.00,WeatherCatV1.10B1784,2013-06-18 01:45:00,
2013-06-17 21:50:00,60.8,59.4,29.85,West,270,0.0,0.0,95,0.00,,,0.00,WeatherCatV1.10B1784,2013-06-18 01:50:00,
2013-06-17 21:55:00,60.8,59.4,29.85,West,270,0.0,0.0,95,0.00,,,0.00,WeatherCatV1.10B1784,2013-06-18 01:55:00,
2013-06-17 22:00:00,60.8,59.4,29.85,West,270,0.0,0.0,95,0.00,,,0.00,WeatherCatV1.10B1784,2013-06-18 02:00:00,
2013-06-17 22:05:00,60.8,59.4,29.85,West,270,0.0,0.0,95,0.00,,,0.00,WeatherCatV1.10B1784,2013-06-18 02:05:00,
2013-06-17 22:10:00,60.8,59.4,29.85,West,270,0.0,0.0,95,0.00,,,0.00,WeatherCatV1.10B1784,2013-06-18 02:10:00,
2013-06-17 22:15:00,60.8,59.4,29.85,West,270,0.0,0.0,95,0.00,,,0.00,WeatherCatV1.10B1784,2013-06-18 02:15:00,
2013-06-17 22:20:00,61.0,59.0,29.85,West,270,0.0,3.0,93,0.00,,,0.00,WeatherCatV1.10B1784,2013-06-18 02:20:00,
2013-06-17 22:25:00,61.0,59.0,29.85,West,270,0.0,3.0,93,0.00,,,0.00,WeatherCatV1.10B1784,2013-06-18 02:25:00,
2013-06-17 22:30:00,61.0,59.0,29.85,West,270,0.0,3.0,93,0.00,,,0.00,WeatherCatV1.10B1784,2013-06-18 02:30:00,
2013-06-17 22:35:00,61.0,59.0,29.85,West,270,0.0,3.0,93,0.00,,,0.00,WeatherCatV1.10B1784,2013-06-18 02:35:00,
2013-06-17 22:40:00,61.0,59.0,29.85,West,270,0.0,3.0,93,0.00,,,0.00,WeatherCatV1.10B1784,2013-06-18 02:40:00,
2013-06-17 22:45:00,61.0,59.0,29.85,West,270,0.0,3.0,93,0.00,,,0.00,WeatherCatV1.10B1784,2013-06-18 02:45:00,
2013-06-17 22:50:00,61.4,59.1,29.84,West,270,0.0,3.0,92,0.00,,,0.00,WeatherCatV1.10B1784,2013-06-18 02:50:00,
2013-06-17 22:55:00,61.4,59.1,29.84,West,270,0.0,3.0,92,0.00,,,0.00,WeatherCatV1.10B1784,2013-06-18 02:55:00,
2013-06-17 23:00:00,61.4,59.1,29.84,West,270,0.0,3.0,92,0.00,,,0.00,WeatherCatV1.10B1784,2013-06-18 03:00:00,
2013-06-17 23:05:00,61.4,59.1,29.84,West,270,0.0,3.0,92,0.00,,,0.00,WeatherCatV1.10B1784,2013-06-18 03:05:00,
2013-06-17 23:10:00,61.4,59.1,29.84,West,270,0.0,3.0,92,0.00,,,0.00,WeatherCatV1.10B1784,2013-06-18 03:10:00,
2013-06-17 23:15:00,61.2,58.9,29.84,West,270,0.0,1.0,92,0.00,,,0.00,WeatherCatV1.10B1784,2013-06-18 03:15:00,
2013-06-17 23:20:00,61.2,58.9,29.84,West,270,0.0,1.0,92,0.00,,,0.00,WeatherCatV1.10B1784,2013-06-18 03:20:00,
2013-06-17 23:25:00,61.2,58.9,29.84,West,270,0.0,1.0,92,0.00,,,0.00,WeatherCatV1.10B1784,2013-06-18 03:25:00,
2013-06-17 23:30:00,61.2,58.9,29.84,West,270,0.0,1.0,92,0.00,,,0.00,WeatherCatV1.10B1784,2013-06-18 03:30:00,
2013-06-17 23:35:00,61.2,58.9,29.84,West,270,0.0,1.0,92,0.00,,,0.00,WeatherCatV1.10B1784,2013-06-18 03:35:00,
2013-06-17 23:40:00,61.2,58.9,29.84,West,270,0.0,1.0,92,0.00,,,0.00,WeatherCatV1.10B1784,2013-06-18 03:40:00,
2013-06-17 23:45:00,61.2,58.9,29.84,West,270,0.0,1.0,92,0.00,,,0.00,WeatherCatV1.10B1784,2013-06-18 03:45:00,
2013-06-17 23:50:00,61.1,58.7,29.85,West,270,0.0,2.0,92,0.00,,,0.00,WeatherCatV1.10B1784,2013-06-18 03:50:00,
2013-06-17 23:55:00,61.1,58.7,29.85,West,270,0.0,2.0,92,0.00,,,0.00,WeatherCatV1.10B1784,2013-06-18 03:55:00,